Time,TemperatureF,DewpointF,PressureIn,WindDirection,WindDirectionDegrees,WindSpeedMPH,WindSpeedGustMPH,Humidity,HourlyPrecipIn,Conditions,Clouds,dailyrainin,SoftwareType,DateUTC
2013-02-15 00:04:00,34.7,34.2,30.12,NNW,338,0.0,-999.0,98,0.00,,,0.01,Wunderground v.1.15,2013-02-15 06:04:00,
2013-02-15 00:09:00,34.7,34.2,30.12,NNW,338,0.0,-999.0,98,0.00,,,0.01,Wunderground v.1.15,2013-02-15 06:09:00,
2013-02-15 00:14:00,34.7,34.2,30.12,NNW,338,0.0,-999.0,98,0.00,,,0.01,Wunderground v.1.15,2013-02-15 06:14:00,
2013-02-15 00:19:00,34.7,34.2,30.12,NNW,338,0.0,-999.0,98,0.00,,,0.01,Wunderground v.1.15,2013-02-15 06:19:00,
2013-02-15 00:24:00,34.6,34.1,30.12,NNW,338,0.0,-999.0,98,0.00,,,0.01,Wunderground v.1.15,2013-02-15 06:24:00,
2013-02-15 00:29:00,34.6,34.1,30.12,NNW,338,0.0,-999.0,98,0.00,,,0.01,Wunderground v.1.15,2013-02-15 06:29:00,
2013-02-15 00:34:00,34.6,34.1,30.12,NNW,338,0.0,-999.0,98,0.00,,,0.01,Wunderground v.1.15,2013-02-15 06:34:00,
2013-02-15 00:39:00,34.5,34.0,30.13,NNW,338,0.0,-999.0,98,0.00,,,0.01,Wunderground v.1.15,2013-02-15 06:39:00,
2013-02-15 00:44:00,34.5,34.0,30.13,NNW,338,0.0,-999.0,98,0.00,,,0.01,Wunderground v.1.15,2013-02-15 06:44:00,
2013-02-15 00:49:00,34.5,34.0,30.13,NNW,338,0.0,-999.0,98,0.00,,,0.01,Wunderground v.1.15,2013-02-15 06:49:00,
2013-02-15 00:54:00,34.9,34.6,30.12,N/A,-737280,0.0,-999.0,99,0.00,,,0.01,Wunderground v.1.15,2013-02-15 06:54:00,
2013-02-15 00:59:00,34.9,34.6,30.12,N/A,-737280,0.0,-999.0,99,0.00,,,0.01,Wunderground v.1.15,2013-02-15 06:59:00,
2013-02-15 01:04:00,34.9,34.6,30.12,N/A,-737280,0.0,-999.0,99,0.00,,,0.01,Wunderground v.1.15,2013-02-15 07:04:00,
2013-02-15 01:09:00,34.9,34.4,30.12,NNW,338,0.0,-999.0,98,0.00,,,0.01,Wunderground v.1.15,2013-02-15 07:09:00,
2013-02-15 01:14:00,34.9,34.4,30.12,NNW,338,0.0,-999.0,98,0.00,,,0.01,Wunderground v.1.15,2013-02-15 07:14:00,
2013-02-15 01:19:00,34.9,34.4,30.12,NNW,338,0.0,-999.0,98,0.00,,,0.01,Wunderground v.1.15,2013-02-15 07:19:00,
2013-02-15 01:24:00,34.9,34.4,30.12,NNW,338,0.0,-999.0,98,0.00,,,0.01,Wunderground v.1.15,2013-02-15 07:24:00,
2013-02-15 01:29:00,34.9,34.4,30.12,NNW,338,0.0,-999.0,98,0.00,,,0.01,Wunderground v.1.15,2013-02-15 07:29:00,
2013-02-15 01:34:00,34.9,34.4,30.12,NNW,338,0.0,-999.0,98,0.00,,,0.01,Wunderground v.1.15,2013-02-15 07:34:00,
2013-02-15 01:39:00,35.3,35.0,30.12,NNW,338,0.0,-999.0,99,0.00,,,0.01,Wunderground v.1.15,2013-02-15 07:39:00,
2013-02-15 01:44:00,35.3,35.0,30.12,NNW,338,0.0,-999.0,99,0.00,,,0.01,Wunderground v.1.15,2013-02-15 07:44:00,
2013-02-15 01:49:00,35.3,35.0,30.12,NNW,338,0.0,-999.0,99,0.00,,,0.01,Wunderground v.1.15,2013-02-15 07:49:00,
2013-02-15 01:54:00,34.8,34.3,30.12,NNW,338,0.0,-999.0,98,0.00,,,0.01,Wunderground v.1.15,2013-02-15 07:54:00,
2013-02-15 01:59:00,34.8,34.3,30.12,NNW,338,0.0,-999.0,98,0.00,,,0.01,Wunderground v.1.15,2013-02-15 07:59:00,
2013-02-15 02:04:00,34.8,34.3,30.12,NNW,338,0.0,-999.0,98,0.00,,,0.01,Wunderground v.1.15,2013-02-15 08:04:00,
2013-02-15 02:09:00,34.5,34.0,30.12,N/A,-737280,0.0,-999.0,98,0.00,,,0.01,Wunderground v.1.15,2013-02-15 08:09:00,
2013-02-15 02:14:00,34.5,34.0,30.12,N/A,-737280,0.0,-999.0,98,0.00,,,0.01,Wunderground v.1.15,2013-02-15 08:14:00,
2013-02-15 02:19:00,34.5,34.0,30.12,N/A,-737280,0.0,-999.0,98,0.00,,,0.01,Wunderground v.1.15,2013-02-15 08:19:00,
2013-02-15 02:24:00,34.2,33.7,30.12,N/A,-737280,0.0,-999.0,98,0.00,,,0.01,Wunderground v.1.15,2013-02-15 08:24:00,
2013-02-15 02:29:00,34.2,33.7,30.12,N/A,-737280,0.0,-999.0,98,0.00,,,0.01,Wunderground v.1.15,2013-02-15 08:29:00,
2013-02-15 02:34:00,34.2,33.7,30.12,N/A,-737280,0.0,-999.0,98,0.00,,,0.01,Wunderground v.1.15,2013-02-15 08:34:00,
2013-02-15 02:39:00,34.1,33.6,30.13,NNW,338,0.0,-999.0,98,0.00,,,0.01,Wunderground v.1.15,2013-02-15 08:39:00,
2013-02-15 02:44:00,34.1,33.6,30.13,NNW,338,0.0,-999.0,98,0.00,,,0.01,Wunderground v.1.15,2013-02-15 08:44:00,
2013-02-15 02:49:00,34.1,33.6,30.13,NNW,338,0.0,-999.0,98,0.00,,,0.01,Wunderground v.1.15,2013-02-15 08:49:00,
2013-02-15 02:54:00,33.8,33.5,30.12,N/A,-737280,0.0,-999.0,99,0.00,,,0.01,Wunderground v.1.15,2013-02-15 08:54:00,
2013-02-15 02:59:00,33.8,33.5,30.12,N/A,-737280,0.0,-999.0,99,0.00,,,0.01,Wunderground v.1.15,2013-02-15 08:59:00,
2013-02-15 03:04:00,33.8,33.5,30.12,N/A,-737280,0.0,-999.0,99,0.00,,,0.01,Wunderground v.1.15,2013-02-15 09:04:00,
2013-02-15 03:09:00,33.5,33.0,30.12,N/A,-737280,0.0,-999.0,98,0.00,,,0.01,Wunderground v.1.15,2013-02-15 09:09:00,
2013-02-15 03:14:00,33.5,33.0,30.12,N/A,-737280,0.0,-999.0,98,0.00,,,0.01,Wunderground v.1.15,2013-02-15 09:14:00,
2013-02-15 03:19:00,33.5,33.0,30.12,N/A,-737280,0.0,-999.0,98,0.00,,,0.01,Wunderground v.1.15,2013-02-15 09:19:00,
2013-02-15 03:24:00,33.2,32.7,30.12,NNW,338,0.0,-999.0,98,0.00,,,0.01,Wunderground v.1.15,2013-02-15 09:24:00,
2013-02-15 03:29:00,33.2,32.7,30.12,NNW,338,0.0,-999.0,98,0.00,,,0.01,Wunderground v.1.15,2013-02-15 09:29:00,
2013-02-15 03:34:00,33.2,32.7,30.12,NNW,338,0.0,-999.0,98,0.00,,,0.01,Wunderground v.1.15,2013-02-15 09:34:00,
2013-02-15 03:39:00,33.1,32.6,30.13,NNW,338,0.0,-999.0,98,0.00,,,0.01,Wunderground v.1.15,2013-02-15 09:39:00,
2013-02-15 03:44:00,33.1,32.6,30.13,NNW,338,0.0,-999.0,98,0.00,,,0.01,Wunderground v.1.15,2013-02-15 09:44:00,
2013-02-15 03:49:00,33.1,32.6,30.13,NNW,338,0.0,-999.0,98,0.00,,,0.01,Wunderground v.1.15,2013-02-15 09:49:00,
2013-02-15 03:54:00,33.0,32.8,30.13,NNW,338,0.0,-999.0,99,0.00,,,0.01,Wunderground v.1.15,2013-02-15 09:54:00,
2013-02-15 03:59:00,33.0,32.8,30.13,NNW,338,0.0,-999.0,99,0.00,,,0.01,Wunderground v.1.15,2013-02-15 09:59:00,
2013-02-15 04:04:00,33.0,32.8,30.13,NNW,338,0.0,-999.0,99,0.00,,,0.01,Wunderground v.1.15,2013-02-15 10:04:00,
2013-02-15 04:09:00,34.0,33.7,30.14,NNW,338,0.0,-999.0,99,0.00,,,0.01,Wunderground v.1.15,2013-02-15 10:09:00,
2013-02-15 04:14:00,34.0,33.7,30.14,NNW,338,0.0,-999.0,99,0.00,,,0.01,Wunderground v.1.15,2013-02-15 10:14:00,
2013-02-15 04:19:00,34.0,33.7,30.14,NNW,338,0.0,-999.0,99,0.00,,,0.01,Wunderground v.1.15,2013-02-15 10:19:00,
2013-02-15 04:24:00,34.3,34.0,30.14,NNW,338,0.0,-999.0,99,0.00,,,0.01,Wunderground v.1.15,2013-02-15 10:24:00,
2013-02-15 04:29:00,34.3,34.0,30.14,NNW,338,0.0,-999.0,99,0.00,,,0.01,Wunderground v.1.15,2013-02-15 10:29:00,
2013-02-15 04:34:00,34.3,34.0,30.14,NNW,338,0.0,-999.0,99,0.00,,,0.01,Wunderground v.1.15,2013-02-15 10:34:00,
2013-02-15 04:39:00,34.8,34.5,30.15,NNW,338,0.0,-999.0,99,0.00,,,0.01,Wunderground v.1.15,2013-02-15 10:39:00,
2013-02-15 04:44:00,34.8,34.5,30.15,NNW,338,0.0,-999.0,99,0.00,,,0.01,Wunderground v.1.15,2013-02-15 10:44:00,
2013-02-15 04:49:00,34.8,34.5,30.15,NNW,338,0.0,-999.0,99,0.00,,,0.01,Wunderground v.1.15,2013-02-15 10:49:00,
2013-02-15 04:54:00,35.3,35.0,30.15,NNW,338,0.0,-999.0,99,0.00,,,0.01,Wunderground v.1.15,2013-02-15 10:54:00,
2013-02-15 04:59:00,35.3,35.0,30.15,NNW,338,0.0,-999.0,99,0.00,,,0.01,Wunderground v.1.15,2013-02-15 10:59:00,
2013-02-15 05:04:00,35.3,35.0,30.15,NNW,338,0.0,-999.0,99,0.00,,,0.01,Wunderground v.1.15,2013-02-15 11:04:00,
2013-02-15 05:09:00,35.8,35.5,30.15,North,0,0.0,-999.0,99,0.00,,,0.01,Wunderground v.1.15,2013-02-15 11:09:00,
2013-02-15 05:14:00,35.8,35.5,30.15,North,0,0.0,-999.0,99,0.00,,,0.01,Wunderground v.1.15,2013-02-15 11:14:00,
2013-02-15 05:19:00,35.8,35.5,30.15,North,0,0.0,-999.0,99,0.00,,,0.01,Wunderground v.1.15,2013-02-15 11:19:00,
2013-02-15 05:24:00,36.1,35.8,30.15,North,0,0.0,-999.0,99,0.00,,,0.01,Wunderground v.1.15,2013-02-15 11:24:00,
2013-02-15 05:29:00,36.1,35.8,30.15,North,0,0.0,-999.0,99,0.00,,,0.01,Wunderground v.1.15,2013-02-15 11:29:00,
2013-02-15 05:34:00,36.1,35.8,30.15,North,0,0.0,-999.0,99,0.00,,,0.01,Wunderground v.1.15,2013-02-15 11:34:00,
2013-02-15 05:39:00,36.4,36.1,30.16,North,0,0.0,-999.0,99,0.01,,,0.01,Wunderground v.1.15,2013-02-15 11:39:00,
2013-02-15 05:44:00,36.4,36.1,30.16,North,0,0.0,-999.0,99,0.01,,,0.01,Wunderground v.1.15,2013-02-15 11:44:00,
2013-02-15 05:49:00,36.4,36.1,30.16,North,0,0.0,-999.0,99,0.01,,,0.01,Wunderground v.1.15,2013-02-15 11:49:00,
2013-02-15 05:54:00,37.2,36.9,30.17,North,0,0.0,-999.0,99,0.01,,,0.01,Wunderground v.1.15,2013-02-15 11:54:00,
2013-02-15 05:59:00,37.2,36.9,30.17,North,0,0.0,-999.0,99,0.01,,,0.01,Wunderground v.1.15,2013-02-15 11:59:00,
2013-02-15 06:04:00,37.2,36.9,30.17,North,0,0.0,-999.0,99,0.01,,,0.01,Wunderground v.1.15,2013-02-15 12:04:00,
2013-02-15 06:09:00,38.8,38.5,30.17,North,0,1.0,-999.0,99,0.01,,,0.01,Wunderground v.1.15,2013-02-15 12:09:00,
2013-02-15 06:14:00,38.8,38.5,30.17,North,0,1.0,-999.0,99,0.01,,,0.01,Wunderground v.1.15,2013-02-15 12:14:00,
2013-02-15 06:19:00,38.8,38.5,30.17,North,0,1.0,-999.0,99,0.01,,,0.01,Wunderground v.1.15,2013-02-15 12:19:00,
2013-02-15 06:24:00,40.3,40.0,30.17,North,0,1.0,-999.0,99,0.01,,,0.01,Wunderground v.1.15,2013-02-15 12:24:00,
2013-02-15 06:29:00,40.3,40.0,30.17,North,0,1.0,-999.0,99,0.01,,,0.01,Wunderground v.1.15,2013-02-15 12:29:00,
2013-02-15 06:34:00,40.3,40.0,30.17,North,0,1.0,-999.0,99,0.01,,,0.01,Wunderground v.1.15,2013-02-15 12:34:00,
2013-02-15 06:39:00,41.8,41.5,30.18,North,0,1.0,-999.0,99,0.00,,,0.01,Wunderground v.1.15,2013-02-15 12:39:00,
2013-02-15 06:44:00,41.8,41.5,30.18,North,0,1.0,-999.0,99,0.00,,,0.01,Wunderground v.1.15,2013-02-15 12:44:00,
2013-02-15 06:49:00,41.8,41.5,30.18,North,0,1.0,-999.0,99,0.00,,,0.01,Wunderground v.1.15,2013-02-15 12:49:00,
2013-02-15 06:54:00,43.4,43.1,30.18,North,0,2.0,-999.0,99,0.00,,,0.01,Wunderground v.1.15,2013-02-15 12:54:00,
2013-02-15 06:59:00,43.4,43.1,30.18,North,0,2.0,-999.0,99,0.00,,,0.01,Wunderground v.1.15,2013-02-15 12:59:00,
2013-02-15 07:04:00,43.4,43.1,30.18,North,0,2.0,-999.0,99,0.00,,,0.01,Wunderground v.1.15,2013-02-15 13:04:00,
2013-02-15 07:09:00,45.3,44.2,30.18,North,0,2.0,-999.0,96,0.00,,,0.01,Wunderground v.1.15,2013-02-15 13:09:00,
2013-02-15 07:14:00,45.3,44.2,30.18,North,0,2.0,-999.0,96,0.00,,,0.01,Wunderground v.1.15,2013-02-15 13:14:00,
2013-02-15 07:19:00,45.3,44.2,30.18,North,0,2.0,-999.0,96,0.00,,,0.01,Wunderground v.1.15,2013-02-15 13:19:00,
2013-02-15 07:24:00,47.7,44.9,30.18,NNE,23,2.0,-999.0,90,0.00,,,0.01,Wunderground v.1.15,2013-02-15 13:24:00,
2013-02-15 07:29:00,47.7,44.9,30.18,NNE,23,2.0,-999.0,90,0.00,,,0.01,Wunderground v.1.15,2013-02-15 13:29:00,
2013-02-15 07:34:00,47.7,44.9,30.18,NNE,23,2.0,-999.0,90,0.00,,,0.01,Wunderground v.1.15,2013-02-15 13:34:00,
2013-02-15 07:39:00,49.9,44.6,30.19,NNE,23,3.0,-999.0,82,0.00,,,0.01,Wunderground v.1.15,2013-02-15 13:39:00,
2013-02-15 07:44:00,49.9,44.6,30.19,NNE,23,3.0,-999.0,82,0.00,,,0.01,Wunderground v.1.15,2013-02-15 13:44:00,
2013-02-15 07:49:00,49.9,44.6,30.19,NNE,23,3.0,-999.0,82,0.00,,,0.01,Wunderground v.1.15,2013-02-15 13:49:00,
2013-02-15 07:54:00,52.2,45.2,30.19,NNE,23,2.0,-999.0,77,0.00,,,0.01,Wunderground v.1.15,2013-02-15 13:54:00,
2013-02-15 07:59:00,52.2,45.2,30.19,NNE,23,2.0,-999.0,77,0.00,,,0.01,Wunderground v.1.15,2013-02-15 13:59:00,
2013-02-15 08:04:00,52.2,45.2,30.19,NNE,23,2.0,-999.0,77,0.00,,,0.01,Wunderground v.1.15,2013-02-15 14:04:00,
2013-02-15 08:09:00,53.5,45.1,30.18,NNE,23,3.0,-999.0,73,0.00,,,0.01,Wunderground v.1.15,2013-02-15 14:09:00,
2013-02-15 08:14:00,53.5,45.1,30.18,NNE,23,3.0,-999.0,73,0.00,,,0.01,Wunderground v.1.15,2013-02-15 14:14:00,
2013-02-15 08:19:00,53.5,45.1,30.18,NNE,23,3.0,-999.0,73,0.00,,,0.01,Wunderground v.1.15,2013-02-15 14:19:00,
2013-02-15 08:24:00,54.9,44.1,30.18,NNE,23,3.0,-999.0,67,0.00,,,0.01,Wunderground v.1.15,2013-02-15 14:24:00,
2013-02-15 08:29:00,54.9,44.1,30.18,NNE,23,3.0,-999.0,67,0.00,,,0.01,Wunderground v.1.15,2013-02-15 14:29:00,
2013-02-15 08:34:00,54.9,44.1,30.18,NNE,23,3.0,-999.0,67,0.00,,,0.01,Wunderground v.1.15,2013-02-15 14:34:00,
2013-02-15 08:39:00,56.5,44.0,30.18,NNE,23,3.0,-999.0,63,0.00,,,0.01,Wunderground v.1.15,2013-02-15 14:39:00,
2013-02-15 08:44:00,56.5,44.0,30.18,NNE,23,3.0,-999.0,63,0.00,,,0.01,Wunderground v.1.15,2013-02-15 14:44:00,
2013-02-15 08:49:00,56.5,44.0,30.18,NNE,23,3.0,-999.0,63,0.00,,,0.01,Wunderground v.1.15,2013-02-15 14:49:00,
2013-02-15 08:54:00,57.9,45.0,30.19,NNE,23,3.0,-999.0,62,0.00,,,0.01,Wunderground v.1.15,2013-02-15 14:54:00,
2013-02-15 08:59:00,57.9,45.0,30.19,NNE,23,3.0,-999.0,62,0.00,,,0.01,Wunderground v.1.15,2013-02-15 14:59:00,
2013-02-15 09:04:00,57.9,45.0,30.19,NNE,23,3.0,-999.0,62,0.00,,,0.01,Wunderground v.1.15,2013-02-15 15:04:00,
2013-02-15 09:09:00,58.5,42.8,30.18,NNE,23,4.0,-999.0,56,0.00,,,0.01,Wunderground v.1.15,2013-02-15 15:09:00,
2013-02-15 09:14:00,58.5,42.8,30.18,NNE,23,4.0,-999.0,56,0.00,,,0.01,Wunderground v.1.15,2013-02-15 15:14:00,
2013-02-15 09:19:00,58.5,42.8,30.18,NNE,23,4.0,-999.0,56,0.00,,,0.01,Wunderground v.1.15,2013-02-15 15:19:00,
2013-02-15 09:24:00,59.4,42.7,30.18,NNE,23,3.0,-999.0,54,0.00,,,0.01,Wunderground v.1.15,2013-02-15 15:24:00,
2013-02-15 09:29:00,59.4,42.7,30.18,NNE,23,3.0,-999.0,54,0.00,,,0.01,Wunderground v.1.15,2013-02-15 15:29:00,
2013-02-15 09:34:00,59.4,42.7,30.18,NNE,23,3.0,-999.0,54,0.00,,,0.01,Wunderground v.1.15,2013-02-15 15:34:00,
2013-02-15 09:39:00,60.0,42.8,30.17,NE,45,2.0,-999.0,53,0.00,,,0.01,Wunderground v.1.15,2013-02-15 15:39:00,
2013-02-15 09:44:00,60.0,42.8,30.17,NE,45,2.0,-999.0,53,0.00,,,0.01,Wunderground v.1.15,2013-02-15 15:44:00,
2013-02-15 09:49:00,60.0,42.8,30.17,NE,45,2.0,-999.0,53,0.00,,,0.01,Wunderground v.1.15,2013-02-15 15:49:00,
2013-02-15 09:54:00,60.8,42.5,30.17,NE,45,2.0,-999.0,51,0.00,,,0.01,Wunderground v.1.15,2013-02-15 15:54:00,
2013-02-15 09:59:00,60.8,42.5,30.17,NE,45,2.0,-999.0,51,0.00,,,0.01,Wunderground v.1.15,2013-02-15 15:59:00,
2013-02-15 10:04:00,60.8,42.5,30.17,NE,45,2.0,-999.0,51,0.00,,,0.01,Wunderground v.1.15,2013-02-15 16:04:00,
2013-02-15 10:09:00,61.1,41.8,30.16,ENE,68,2.0,-999.0,49,0.00,,,0.01,Wunderground v.1.15,2013-02-15 16:09:00,
2013-02-15 10:14:00,61.1,41.8,30.16,ENE,68,2.0,-999.0,49,0.00,,,0.01,Wunderground v.1.15,2013-02-15 16:14:00,
2013-02-15 10:19:00,61.1,41.8,30.16,ENE,68,2.0,-999.0,49,0.00,,,0.01,Wunderground v.1.15,2013-02-15 16:19:00,
2013-02-15 10:24:00,61.8,40.8,30.15,ENE,68,2.0,-999.0,46,0.00,,,0.01,Wunderground v.1.15,2013-02-15 16:24:00,
2013-02-15 10:29:00,61.8,40.8,30.15,ENE,68,2.0,-999.0,46,0.00,,,0.01,Wunderground v.1.15,2013-02-15 16:29:00,
2013-02-15 10:34:00,61.8,40.8,30.15,ENE,68,2.0,-999.0,46,0.00,,,0.01,Wunderground v.1.15,2013-02-15 16:34:00,
2013-02-15 10:39:00,62.0,40.4,30.15,ENE,68,2.0,-999.0,45,0.00,,,0.01,Wunderground v.1.15,2013-02-15 16:39:00,
2013-02-15 10:44:00,62.0,40.4,30.15,ENE,68,2.0,-999.0,45,0.00,,,0.01,Wunderground v.1.15,2013-02-15 16:44:00,
2013-02-15 10:49:00,62.0,40.4,30.15,ENE,68,2.0,-999.0,45,0.00,,,0.01,Wunderground v.1.15,2013-02-15 16:49:00,
2013-02-15 10:54:00,62.6,44.7,30.14,SE,135,2.0,-999.0,52,0.00,,,0.01,Wunderground v.1.15,2013-02-15 16:54:00,
2013-02-15 10:59:00,62.6,44.7,30.14,SE,135,2.0,-999.0,52,0.00,,,0.01,Wunderground v.1.15,2013-02-15 16:59:00,
2013-02-15 11:04:00,62.6,44.7,30.14,SE,135,2.0,-999.0,52,0.00,,,0.01,Wunderground v.1.15,2013-02-15 17:04:00,
2013-02-15 11:09:00,62.3,43.9,30.13,SSW,203,3.0,-999.0,51,0.00,,,0.01,Wunderground v.1.15,2013-02-15 17:09:00,
2013-02-15 11:14:00,62.3,43.9,30.13,SSW,203,3.0,-999.0,51,0.00,,,0.01,Wunderground v.1.15,2013-02-15 17:14:00,
2013-02-15 11:19:00,62.3,43.9,30.13,SSW,203,3.0,-999.0,51,0.00,,,0.01,Wunderground v.1.15,2013-02-15 17:19:00,
2013-02-15 11:24:00,62.7,45.3,30.12,South,180,3.0,-999.0,53,0.00,,,0.01,Wunderground v.1.15,2013-02-15 17:24:00,
2013-02-15 11:29:00,62.7,45.3,30.12,South,180,3.0,-999.0,53,0.00,,,0.01,Wunderground v.1.15,2013-02-15 17:29:00,
2013-02-15 11:34:00,62.7,45.3,30.12,South,180,3.0,-999.0,53,0.00,,,0.01,Wunderground v.1.15,2013-02-15 17:34:00,
2013-02-15 11:39:00,62.6,44.2,30.11,South,180,3.0,-999.0,51,0.00,,,0.01,Wunderground v.1.15,2013-02-15 17:39:00,
2013-02-15 11:44:00,62.6,44.2,30.11,South,180,3.0,-999.0,51,0.00,,,0.01,Wunderground v.1.15,2013-02-15 17:44:00,
2013-02-15 11:49:00,62.6,44.2,30.11,South,180,3.0,-999.0,51,0.00,,,0.01,Wunderground v.1.15,2013-02-15 17:49:00,
2013-02-15 11:54:00,61.5,44.2,30.10,SSW,203,4.0,-999.0,53,0.00,,,0.01,Wunderground v.1.15,2013-02-15 17:54:00,
2013-02-15 11:59:00,61.5,44.2,30.10,SSW,203,4.0,-999.0,53,0.00,,,0.01,Wunderground v.1.15,2013-02-15 17:59:00,
2013-02-15 12:04:00,61.5,44.2,30.10,SSW,203,4.0,-999.0,53,0.00,,,0.01,Wunderground v.1.15,2013-02-15 18:04:00,
2013-02-15 12:09:00,61.9,43.0,30.09,SSW,203,3.0,-999.0,50,0.00,,,0.01,Wunderground v.1.15,2013-02-15 18:09:00,
2013-02-15 12:14:00,61.9,43.0,30.09,SSW,203,3.0,-999.0,50,0.00,,,0.01,Wunderground v.1.15,2013-02-15 18:14:00,
2013-02-15 12:19:00,61.9,43.0,30.09,SSW,203,3.0,-999.0,50,0.00,,,0.01,Wunderground v.1.15,2013-02-15 18:19:00,
2013-02-15 12:24:00,61.8,43.5,30.09,SW,225,4.0,-999.0,51,0.00,,,0.01,Wunderground v.1.15,2013-02-15 18:24:00,
2013-02-15 12:29:00,61.8,43.5,30.09,SW,225,4.0,-999.0,51,0.00,,,0.01,Wunderground v.1.15,2013-02-15 18:29:00,
2013-02-15 12:34:00,61.8,43.5,30.09,SW,225,4.0,-999.0,51,0.00,,,0.01,Wunderground v.1.15,2013-02-15 18:34:00,
2013-02-15 12:39:00,61.9,43.0,30.09,SSW,203,4.0,-999.0,50,0.00,,,0.01,Wunderground v.1.15,2013-02-15 18:39:00,
2013-02-15 12:44:00,61.9,43.0,30.09,SSW,203,4.0,-999.0,50,0.00,,,0.01,Wunderground v.1.15,2013-02-15 18:44:00,
2013-02-15 12:49:00,61.9,43.0,30.09,SSW,203,4.0,-999.0,50,0.00,,,0.01,Wunderground v.1.15,2013-02-15 18:49:00,
2013-02-15 12:54:00,61.2,42.9,30.09,SW,225,5.0,-999.0,51,0.00,,,0.01,Wunderground v.1.15,2013-02-15 18:54:00,
2013-02-15 12:59:00,61.2,42.9,30.09,SW,225,5.0,-999.0,51,0.00,,,0.01,Wunderground v.1.15,2013-02-15 18:59:00,
2013-02-15 13:04:00,61.2,42.9,30.09,SW,225,5.0,-999.0,51,0.00,,,0.01,Wunderground v.1.15,2013-02-15 19:04:00,
2013-02-15 13:09:00,61.2,43.4,30.08,SW,225,5.0,-999.0,52,0.00,,,0.01,Wunderground v.1.15,2013-02-15 19:09:00,
2013-02-15 13:14:00,61.2,43.4,30.08,SW,225,5.0,-999.0,52,0.00,,,0.01,Wunderground v.1.15,2013-02-15 19:14:00,
2013-02-15 13:19:00,61.2,43.4,30.08,SW,225,5.0,-999.0,52,0.00,,,0.01,Wunderground v.1.15,2013-02-15 19:19:00,
2013-02-15 13:24:00,61.7,43.9,30.08,SSW,203,4.0,-999.0,52,0.00,,,0.01,Wunderground v.1.15,2013-02-15 19:24:00,
2013-02-15 13:29:00,61.7,43.9,30.08,SSW,203,4.0,-999.0,52,0.00,,,0.01,Wunderground v.1.15,2013-02-15 19:29:00,
2013-02-15 13:34:00,61.7,43.9,30.08,SSW,203,4.0,-999.0,52,0.00,,,0.01,Wunderground v.1.15,2013-02-15 19:34:00,
2013-02-15 13:39:00,61.7,44.9,30.08,SW,225,4.0,-999.0,54,0.00,,,0.01,Wunderground v.1.15,2013-02-15 19:39:00,
2013-02-15 13:44:00,61.7,44.9,30.08,SW,225,4.0,-999.0,54,0.00,,,0.01,Wunderground v.1.15,2013-02-15 19:44:00,
2013-02-15 13:49:00,61.7,44.9,30.08,SW,225,4.0,-999.0,54,0.00,,,0.01,Wunderground v.1.15,2013-02-15 19:49:00,
2013-02-15 13:54:00,60.9,44.1,30.07,SW,225,5.0,-999.0,54,0.00,,,0.01,Wunderground v.1.15,2013-02-15 19:54:00,
2013-02-15 13:59:00,60.9,44.1,30.07,SW,225,5.0,-999.0,54,0.00,,,0.01,Wunderground v.1.15,2013-02-15 19:59:00,
2013-02-15 14:04:00,60.9,44.1,30.07,SW,225,5.0,-999.0,54,0.00,,,0.01,Wunderground v.1.15,2013-02-15 20:04:00,
2013-02-15 14:09:00,60.8,43.6,30.07,SW,225,5.0,-999.0,53,0.00,,,0.01,Wunderground v.1.15,2013-02-15 20:09:00,
2013-02-15 14:14:00,60.8,43.6,30.07,SW,225,5.0,-999.0,53,0.00,,,0.01,Wunderground v.1.15,2013-02-15 20:14:00,
2013-02-15 14:19:00,60.8,43.6,30.07,SW,225,5.0,-999.0,53,0.00,,,0.01,Wunderground v.1.15,2013-02-15 20:19:00,
2013-02-15 14:24:00,61.2,44.4,30.07,SW,225,5.0,-999.0,54,0.00,,,0.01,Wunderground v.1.15,2013-02-15 20:24:00,
2013-02-15 14:29:00,61.2,44.4,30.07,SW,225,5.0,-999.0,54,0.00,,,0.01,Wunderground v.1.15,2013-02-15 20:29:00,
2013-02-15 14:34:00,61.2,44.4,30.07,SW,225,5.0,-999.0,54,0.00,,,0.01,Wunderground v.1.15,2013-02-15 20:34:00,
2013-02-15 14:39:00,60.9,44.6,30.07,SW,225,5.0,-999.0,55,0.00,,,0.01,Wunderground v.1.15,2013-02-15 20:39:00,
2013-02-15 14:44:00,60.9,44.6,30.07,SW,225,5.0,-999.0,55,0.00,,,0.01,Wunderground v.1.15,2013-02-15 20:44:00,
2013-02-15 14:49:00,60.9,44.6,30.07,SW,225,5.0,-999.0,55,0.00,,,0.01,Wunderground v.1.15,2013-02-15 20:49:00,
2013-02-15 14:54:00,61.6,44.8,30.07,SW,225,4.0,-999.0,54,0.00,,,0.01,Wunderground v.1.15,2013-02-15 20:54:00,
2013-02-15 14:59:00,61.6,44.8,30.07,SW,225,4.0,-999.0,54,0.00,,,0.01,Wunderground v.1.15,2013-02-15 20:59:00,
2013-02-15 15:04:00,61.6,44.8,30.07,SW,225,4.0,-999.0,54,0.00,,,0.01,Wunderground v.1.15,2013-02-15 21:04:00,
2013-02-15 15:09:00,61.1,45.3,30.06,SW,225,3.0,-999.0,56,0.00,,,0.01,Wunderground v.1.15,2013-02-15 21:09:00,
2013-02-15 15:14:00,61.1,45.3,30.06,SW,225,3.0,-999.0,56,0.00,,,0.01,Wunderground v.1.15,2013-02-15 21:14:00,
2013-02-15 15:19:00,61.1,45.3,30.06,SW,225,3.0,-999.0,56,0.00,,,0.01,Wunderground v.1.15,2013-02-15 21:19:00,
2013-02-15 15:24:00,60.6,44.8,30.06,SW,225,4.0,-999.0,56,0.00,,,0.01,Wunderground v.1.15,2013-02-15 21:24:00,
2013-02-15 15:29:00,60.6,44.8,30.06,SW,225,4.0,-999.0,56,0.00,,,0.01,Wunderground v.1.15,2013-02-15 21:29:00,
2013-02-15 15:34:00,60.6,44.8,30.06,SW,225,4.0,-999.0,56,0.00,,,0.01,Wunderground v.1.15,2013-02-15 21:34:00,
2013-02-15 15:39:00,60.0,44.7,30.06,SW,225,3.0,-999.0,57,0.00,,,0.01,Wunderground v.1.15,2013-02-15 21:39:00,
2013-02-15 15:44:00,60.0,44.7,30.06,SW,225,3.0,-999.0,57,0.00,,,0.01,Wunderground v.1.15,2013-02-15 21:44:00,
2013-02-15 15:49:00,60.0,44.7,30.06,SW,225,3.0,-999.0,57,0.00,,,0.01,Wunderground v.1.15,2013-02-15 21:49:00,
2013-02-15 15:54:00,59.9,45.1,30.06,SW,225,2.0,-999.0,58,0.00,,,0.01,Wunderground v.1.15,2013-02-15 21:54:00,
2013-02-15 15:59:00,59.9,45.1,30.06,SW,225,2.0,-999.0,58,0.00,,,0.01,Wunderground v.1.15,2013-02-15 21:59:00,
2013-02-15 16:04:00,59.9,45.1,30.06,SW,225,2.0,-999.0,58,0.00,,,0.01,Wunderground v.1.15,2013-02-15 22:04:00,
2013-02-15 16:09:00,58.3,44.5,30.06,SW,225,2.0,-999.0,60,0.00,,,0.01,Wunderground v.1.15,2013-02-15 22:09:00,
2013-02-15 16:14:00,58.3,44.5,30.06,SW,225,2.0,-999.0,60,0.00,,,0.01,Wunderground v.1.15,2013-02-15 22:14:00,
2013-02-15 16:19:00,58.3,44.5,30.06,SW,225,2.0,-999.0,60,0.00,,,0.01,Wunderground v.1.15,2013-02-15 22:19:00,
2013-02-15 16:24:00,57.3,45.2,30.07,SW,225,1.0,-999.0,64,0.00,,,0.01,Wunderground v.1.15,2013-02-15 22:24:00,
2013-02-15 16:29:00,57.3,45.2,30.07,SW,225,1.0,-999.0,64,0.00,,,0.01,Wunderground v.1.15,2013-02-15 22:29:00,
2013-02-15 16:34:00,57.3,45.2,30.07,SW,225,1.0,-999.0,64,0.00,,,0.01,Wunderground v.1.15,2013-02-15 22:34:00,
2013-02-15 16:39:00,56.5,45.7,30.07,SW,225,1.0,-999.0,67,0.00,,,0.01,Wunderground v.1.15,2013-02-15 22:39:00,
2013-02-15 16:44:00,56.5,45.7,30.07,SW,225,1.0,-999.0,67,0.00,,,0.01,Wunderground v.1.15,2013-02-15 22:44:00,
2013-02-15 16:49:00,56.5,45.7,30.07,SW,225,1.0,-999.0,67,0.00,,,0.01,Wunderground v.1.15,2013-02-15 22:49:00,
2013-02-15 16:54:00,55.9,45.5,30.07,SW,225,1.0,-999.0,68,0.00,,,0.01,Wunderground v.1.15,2013-02-15 22:54:00,
2013-02-15 16:59:00,55.9,45.5,30.07,SW,225,1.0,-999.0,68,0.00,,,0.01,Wunderground v.1.15,2013-02-15 22:59:00,
2013-02-15 17:04:00,55.9,45.5,30.07,SW,225,1.0,-999.0,68,0.00,,,0.01,Wunderground v.1.15,2013-02-15 23:04:00,
2013-02-15 17:09:00,56.0,46.0,30.08,SW,225,2.0,-999.0,69,0.00,,,0.01,Wunderground v.1.15,2013-02-15 23:09:00,
2013-02-15 17:14:00,56.0,46.0,30.08,SW,225,2.0,-999.0,69,0.00,,,0.01,Wunderground v.1.15,2013-02-15 23:14:00,
2013-02-15 17:19:00,56.0,46.0,30.08,SW,225,2.0,-999.0,69,0.00,,,0.01,Wunderground v.1.15,2013-02-15 23:19:00,
2013-02-15 17:24:00,55.3,46.1,30.08,WSW,248,1.0,-999.0,71,0.00,,,0.01,Wunderground v.1.15,2013-02-15 23:24:00,
2013-02-15 17:29:00,55.3,46.1,30.08,WSW,248,1.0,-999.0,71,0.00,,,0.01,Wunderground v.1.15,2013-02-15 23:29:00,
2013-02-15 17:34:00,55.3,46.1,30.08,WSW,248,1.0,-999.0,71,0.00,,,0.01,Wunderground v.1.15,2013-02-15 23:34:00,
2013-02-15 17:39:00,54.6,45.8,30.08,West,270,0.0,-999.0,72,0.00,,,0.01,Wunderground v.1.15,2013-02-15 23:39:00,
2013-02-15 17:44:00,54.6,45.8,30.08,West,270,0.0,-999.0,72,0.00,,,0.01,Wunderground v.1.15,2013-02-15 23:44:00,
2013-02-15 17:49:00,54.6,45.8,30.08,West,270,0.0,-999.0,72,0.00,,,0.01,Wunderground v.1.15,2013-02-15 23:49:00,
2013-02-15 17:54:00,53.6,45.5,30.08,West,270,0.0,-999.0,74,0.00,,,0.01,Wunderground v.1.15,2013-02-15 23:54:00,
2013-02-15 17:59:00,53.6,45.5,30.08,West,270,0.0,-999.0,74,0.00,,,0.01,Wunderground v.1.15,2013-02-15 23:59:00,
2013-02-15 18:04:00,53.6,45.5,30.08,West,270,0.0,-999.0,74,0.00,,,0.01,Wunderground v.1.15,2013-02-16 00:04:00,
2013-02-15 18:09:00,52.6,45.2,30.08,NW,315,0.0,-999.0,76,0.00,,,0.01,Wunderground v.1.15,2013-02-16 00:09:00,
2013-02-15 18:14:00,52.6,45.2,30.08,NW,315,0.0,-999.0,76,0.00,,,0.01,Wunderground v.1.15,2013-02-16 00:14:00,
2013-02-15 18:19:00,52.6,45.2,30.08,NW,315,0.0,-999.0,76,0.00,,,0.01,Wunderground v.1.15,2013-02-16 00:19:00,
2013-02-15 18:24:00,52.0,45.4,30.09,WNW,293,0.0,-999.0,78,0.00,,,0.01,Wunderground v.1.15,2013-02-16 00:24:00,
2013-02-15 18:29:00,52.0,45.4,30.09,WNW,293,0.0,-999.0,78,0.00,,,0.01,Wunderground v.1.15,2013-02-16 00:29:00,
2013-02-15 18:34:00,52.0,45.4,30.09,WNW,293,0.0,-999.0,78,0.00,,,0.01,Wunderground v.1.15,2013-02-16 00:34:00,
2013-02-15 18:39:00,51.6,45.3,30.09,West,270,0.0,-999.0,79,0.00,,,0.01,Wunderground v.1.15,2013-02-16 00:39:00,
2013-02-15 18:44:00,51.6,45.3,30.09,West,270,0.0,-999.0,79,0.00,,,0.01,Wunderground v.1.15,2013-02-16 00:44:00,
2013-02-15 18:49:00,51.6,45.3,30.09,West,270,0.0,-999.0,79,0.00,,,0.01,Wunderground v.1.15,2013-02-16 00:49:00,
2013-02-15 18:54:00,51.4,45.1,30.09,WNW,293,0.0,-999.0,79,0.00,,,0.01,Wunderground v.1.15,2013-02-16 00:54:00,
2013-02-15 18:59:00,51.4,45.1,30.09,WNW,293,0.0,-999.0,79,0.00,,,0.01,Wunderground v.1.15,2013-02-16 00:59:00,
2013-02-15 19:04:00,51.4,45.1,30.09,WNW,293,0.0,-999.0,79,0.00,,,0.01,Wunderground v.1.15,2013-02-16 01:04:00,
2013-02-15 19:09:00,51.2,45.2,30.09,West,270,0.0,-999.0,80,0.00,,,0.01,Wunderground v.1.15,2013-02-16 01:09:00,
2013-02-15 19:14:00,51.2,45.2,30.09,West,270,0.0,-999.0,80,0.00,,,0.01,Wunderground v.1.15,2013-02-16 01:14:00,
2013-02-15 19:19:00,51.2,45.2,30.09,West,270,0.0,-999.0,80,0.00,,,0.01,Wunderground v.1.15,2013-02-16 01:19:00,
2013-02-15 19:24:00,51.0,45.0,30.09,WNW,293,0.0,-999.0,80,0.00,,,0.01,Wunderground v.1.15,2013-02-16 01:24:00,
2013-02-15 19:29:00,51.0,45.0,30.09,WNW,293,0.0,-999.0,80,0.00,,,0.01,Wunderground v.1.15,2013-02-16 01:29:00,
2013-02-15 19:34:00,51.0,45.0,30.09,WNW,293,0.0,-999.0,80,0.00,,,0.01,Wunderground v.1.15,2013-02-16 01:34:00,
2013-02-15 19:39:00,51.6,45.3,30.10,West,270,0.0,-999.0,79,0.00,,,0.01,Wunderground v.1.15,2013-02-16 01:39:00,
2013-02-15 19:44:00,51.6,45.3,30.10,West,270,0.0,-999.0,79,0.00,,,0.01,Wunderground v.1.15,2013-02-16 01:44:00,
2013-02-15 19:49:00,51.6,45.3,30.10,West,270,0.0,-999.0,79,0.00,,,0.01,Wunderground v.1.15,2013-02-16 01:49:00,
2013-02-15 19:54:00,51.8,45.5,30.10,West,270,0.0,-999.0,79,0.00,,,0.01,Wunderground v.1.15,2013-02-16 01:54:00,
2013-02-15 19:59:00,51.8,45.5,30.10,West,270,0.0,-999.0,79,0.00,,,0.01,Wunderground v.1.15,2013-02-16 01:59:00,
2013-02-15 20:04:00,51.8,45.5,30.10,West,270,0.0,-999.0,79,0.00,,,0.01,Wunderground v.1.15,2013-02-16 02:04:00,
2013-02-15 20:09:00,51.1,45.5,30.10,WSW,248,0.0,-999.0,81,0.00,,,0.01,Wunderground v.1.15,2013-02-16 02:09:00,
2013-02-15 20:14:00,51.1,45.5,30.10,WSW,248,0.0,-999.0,81,0.00,,,0.01,Wunderground v.1.15,2013-02-16 02:14:00,
2013-02-15 20:19:00,51.1,45.5,30.10,WSW,248,0.0,-999.0,81,0.00,,,0.01,Wunderground v.1.15,2013-02-16 02:19:00,
2013-02-15 20:24:00,50.4,45.1,30.10,WNW,293,0.0,-999.0,82,0.00,,,0.01,Wunderground v.1.15,2013-02-16 02:24:00,
2013-02-15 20:29:00,50.4,45.1,30.10,WNW,293,0.0,-999.0,82,0.00,,,0.01,Wunderground v.1.15,2013-02-16 02:29:00,
2013-02-15 20:34:00,50.4,45.1,30.10,WNW,293,0.0,-999.0,82,0.00,,,0.01,Wunderground v.1.15,2013-02-16 02:34:00,
2013-02-15 20:39:00,49.8,45.5,30.10,SW,225,0.0,-999.0,85,0.00,,,0.01,Wunderground v.1.15,2013-02-16 02:39:00,
2013-02-15 20:44:00,49.8,45.5,30.10,SW,225,0.0,-999.0,85,0.00,,,0.01,Wunderground v.1.15,2013-02-16 02:44:00,
2013-02-15 20:49:00,49.8,45.5,30.10,SW,225,0.0,-999.0,85,0.00,,,0.01,Wunderground v.1.15,2013-02-16 02:49:00,
2013-02-15 20:54:00,49.4,45.1,30.10,NW,315,0.0,-999.0,85,0.00,,,0.01,Wunderground v.1.15,2013-02-16 02:54:00,
2013-02-15 20:59:00,49.4,45.1,30.10,NW,315,0.0,-999.0,85,0.00,,,0.01,Wunderground v.1.15,2013-02-16 02:59:00,
2013-02-15 21:04:00,49.4,45.1,30.10,NW,315,0.0,-999.0,85,0.00,,,0.01,Wunderground v.1.15,2013-02-16 03:04:00,
2013-02-15 21:09:00,48.3,44.6,30.10,N/A,-737280,0.0,-999.0,87,0.00,,,0.01,Wunderground v.1.15,2013-02-16 03:09:00,
2013-02-15 21:14:00,48.3,44.6,30.10,N/A,-737280,0.0,-999.0,87,0.00,,,0.01,Wunderground v.1.15,2013-02-16 03:14:00,
2013-02-15 21:19:00,48.3,44.6,30.10,N/A,-737280,0.0,-999.0,87,0.00,,,0.01,Wunderground v.1.15,2013-02-16 03:19:00,
2013-02-15 21:24:00,47.8,44.7,30.10,N/A,-737280,0.0,-999.0,89,0.00,,,0.01,Wunderground v.1.15,2013-02-16 03:24:00,
2013-02-15 21:29:00,47.8,44.7,30.10,N/A,-737280,0.0,-999.0,89,0.00,,,0.01,Wunderground v.1.15,2013-02-16 03:29:00,
2013-02-15 21:34:00,47.8,44.7,30.10,N/A,-737280,0.0,-999.0,89,0.00,,,0.01,Wunderground v.1.15,2013-02-16 03:34:00,
2013-02-15 21:39:00,47.6,44.5,30.09,WNW,293,0.0,-999.0,89,0.00,,,0.01,Wunderground v.1.15,2013-02-16 03:39:00,
2013-02-15 21:44:00,47.6,44.5,30.09,WNW,293,0.0,-999.0,89,0.00,,,0.01,Wunderground v.1.15,2013-02-16 03:44:00,
2013-02-15 21:49:00,47.6,44.5,30.09,WNW,293,0.0,-999.0,89,0.00,,,0.01,Wunderground v.1.15,2013-02-16 03:49:00,
2013-02-15 21:54:00,47.3,44.2,30.09,WNW,293,0.0,-999.0,89,0.00,,,0.01,Wunderground v.1.15,2013-02-16 03:54:00,
2013-02-15 21:59:00,47.3,44.2,30.09,WNW,293,0.0,-999.0,89,0.00,,,0.01,Wunderground v.1.15,2013-02-16 03:59:00,
2013-02-15 22:04:00,47.3,44.2,30.09,WNW,293,0.0,-999.0,89,0.00,,,0.01,Wunderground v.1.15,2013-02-16 04:04:00,
2013-02-15 22:09:00,47.3,44.5,30.09,NW,315,0.0,-999.0,90,0.00,,,0.01,Wunderground v.1.15,2013-02-16 04:09:00,
2013-02-15 22:14:00,47.3,44.5,30.09,NW,315,0.0,-999.0,90,0.00,,,0.01,Wunderground v.1.15,2013-02-16 04:14:00,
2013-02-15 22:19:00,47.3,44.5,30.09,NW,315,0.0,-999.0,90,0.00,,,0.01,Wunderground v.1.15,2013-02-16 04:19:00,
2013-02-15 22:24:00,47.2,44.4,30.08,NNE,23,0.0,-999.0,90,0.00,,,0.01,Wunderground v.1.15,2013-02-16 04:24:00,
2013-02-15 22:29:00,47.2,44.4,30.08,NNE,23,0.0,-999.0,90,0.00,,,0.01,Wunderground v.1.15,2013-02-16 04:29:00,
2013-02-15 22:34:00,47.2,44.4,30.08,NNE,23,0.0,-999.0,90,0.00,,,0.01,Wunderground v.1.15,2013-02-16 04:34:00,
2013-02-15 22:39:00,47.5,44.4,30.09,NNE,23,0.0,-999.0,89,0.00,,,0.01,Wunderground v.1.15,2013-02-16 04:39:00,
2013-02-15 22:44:00,47.5,44.4,30.09,NNE,23,0.0,-999.0,89,0.00,,,0.01,Wunderground v.1.15,2013-02-16 04:44:00,
2013-02-15 22:49:00,47.5,44.4,30.09,NNE,23,0.0,-999.0,89,0.00,,,0.01,Wunderground v.1.15,2013-02-16 04:49:00,
2013-02-15 22:54:00,47.2,44.1,30.09,North,0,0.0,-999.0,89,0.00,,,0.01,Wunderground v.1.15,2013-02-16 04:54:00,
2013-02-15 22:59:00,47.2,44.1,30.09,North,0,0.0,-999.0,89,0.00,,,0.01,Wunderground v.1.15,2013-02-16 04:59:00,
2013-02-15 23:04:00,47.2,44.1,30.09,North,0,0.0,-999.0,89,0.00,,,0.01,Wunderground v.1.15,2013-02-16 05:04:00,
2013-02-15 23:09:00,47.0,43.9,30.08,NNW,338,0.0,-999.0,89,0.00,,,0.01,Wunderground v.1.15,2013-02-16 05:09:00,
2013-02-15 23:14:00,47.0,43.9,30.08,NNW,338,0.0,-999.0,89,0.00,,,0.01,Wunderground v.1.15,2013-02-16 05:14:00,
2013-02-15 23:19:00,47.0,43.9,30.08,NNW,338,0.0,-999.0,89,0.00,,,0.01,Wunderground v.1.15,2013-02-16 05:19:00,
2013-02-15 23:24:00,46.7,43.9,30.08,North,0,0.0,-999.0,90,0.00,,,0.01,Wunderground v.1.15,2013-02-16 05:24:00,
2013-02-15 23:29:00,46.7,43.9,30.08,North,0,0.0,-999.0,90,0.00,,,0.01,Wunderground v.1.15,2013-02-16 05:29:00,
2013-02-15 23:34:00,46.7,43.9,30.08,North,0,0.0,-999.0,90,0.00,,,0.01,Wunderground v.1.15,2013-02-16 05:34:00,
2013-02-15 23:39:00,46.5,43.7,30.08,NW,315,1.0,-999.0,90,0.00,,,0.01,Wunderground v.1.15,2013-02-16 05:39:00,
2013-02-15 23:44:00,46.5,43.7,30.08,NW,315,1.0,-999.0,90,0.00,,,0.01,Wunderground v.1.15,2013-02-16 05:44:00,
2013-02-15 23:49:00,46.5,43.7,30.08,NW,315,1.0,-999.0,90,0.00,,,0.01,Wunderground v.1.15,2013-02-16 05:49:00,
2013-02-15 23:54:00,46.7,43.3,30.08,NNW,338,2.0,-999.0,88,0.00,,,0.01,Wunderground v.1.15,2013-02-16 05:54:00,
2013-02-15 23:59:00,46.7,43.3,30.08,NNW,338,2.0,-999.0,88,0.00,,,0.01,Wunderground v.1.15,2013-02-16 05:59:00,